Regional Weather Roundup
Issued by NWS Bismarck, ND

Home | Current Version | Previous Version | Text Only | Print | Product List | Glossary On
Versions: 1 2 3 4 5 6 7 8 9 10 11 12 13 14 15 16 17 18 19 20 21 22 23 24 25 26 27 28 29 30 31 32 33 34 35 36 37 38 39 40 41 42 43 44 45 46 47 48 49 50
000
ASUS43 KBIS 210510
RWRBIS

NWR BROADCAST TEXT
NATIONAL WEATHER SERVICE BISMARCK ND
1100 PM CST FRI JAN 20 2017

NOTE: "FAIR" INDICATES FEW OR NO CLOUDS BELOW 12,000 FEET WITH NO
SIGNIFICANT WEATHER AND/OR OBSTRUCTIONS TO VISIBILITY.


CITY           SKY/WX    TMP DP  RH WIND       PRES   REMARKS
WILLISTON      FAIR      25  24  96 SW5       29.31F WCI  19
MINOT          CLOUDY    29  28  96 E3        29.32F FOG
MINOT AFB      CLOUDY    26  25  95 CALM      29.32S FOG
BISMARCK       CLOUDY    32  31  96 W3        29.33F FOG
DICKINSON      FAIR      23  20  88 W12       29.28F WCI  12
GARRISON         N/A     24  23  96 W7        29.32S WCI  16
HETTINGER ARPT FAIR      26  23  88 NW12      29.31S WCI  16
JAMESTOWN      FOG       33  33 100 SE10      29.35R VSB 1/4
CARRINGTON     CLOUDY    34  34 100 SE10      29.37S
HAZEN          FOG      N/A N/A N/A SW3       29.35S VSB 1/4
MANDAN         CLOUDY    28  28 100 NW6       29.32F FOG
RUGBY            N/A     32  32 100 SE7       29.35S FOG
STANLEY        FAIR      12  12 100 CALM      29.32F FOG
TIOGA          FOG       10  10 100 CALM      29.31F VSB 1/4
WATFORD CITY   FAIR      19  19 100 SW5       29.31S WCI  13
$$

CITY           SKY/WX    TMP DP  RH WIND       PRES   REMARKS
GRAND FORKS    CLOUDY    36  33  89 SE12      29.43F
GRAND FORKS AF CLOUDY    34  34  99 SE9       29.42F
DEVILS LAKE    MIX PCPN  33  32  96 SE12      29.38S VSB 1/2
FARGO          CLOUDY    39  35  86 SE10      29.42S
CAVALIER         N/A     34  34 100 SE7       29.43F FOG
GRAFTON        CLOUDY    34  34 100 SE10      29.45S FOG
GWINNER        CLOUDY    34  34 100 SE8       29.38S VSB 1/4
ROLLA            N/A    N/A N/A N/A MISG        N/A
$$

CITY           SKY/WX    TMP DP  RH WIND       PRES   REMARKS
ABERDEEN       CLOUDY    32  28  85 CALM      29.35F
MOBRIDGE       CLOUDY    24  21  88 SE3       29.28F FOG
BUFFALO          N/A     36  31  82 W25       29.27S
RAPID CITY     CLOUDY    36  31  82 NW9       29.35S
GLASGOW        FAIR      29  27  92 W9        29.34S
SIDNEY         CLOUDY    36  29  75 NW17      29.32S
WOLF POINT     CLOUDY    31  27  85 SW8       29.35S
GLENDIVE       CLOUDY    34  28  79 W9        29.35S
MILES CITY     FOG       32  30  92 S6        29.36F VSB 1/2
BAKER          CLOUDY    32  29  88 W12       29.35S
$$

CITY           SKY/WX    TMP DP  RH WIND       PRES   REMARKS
BILLINGS       FAIR      30  25  81 SW15      29.37S WCI  19
GREAT FALLS    FAIR      26  17  68 S9        29.31F WCI  17
REGINA         MOCLDY    25  23  93 E6        29.29S WCI  18
ESTEVAN        FOG       12  10  92 E9        29.31S VSB 1/4 WCI   0
$$





USA.gov is the U.S. government's official web portal to all federal, state and local government web resources and services.